Showing default

ASTROCAST-01, 43798

Orbit data source: Space-Track

ASTROCAST-01, 43798 is a payload satellite owned by Astrocast (CH) in SSO that was launched on Mon, 03 Dec 2018 UTC via an FALCON 9 launch vehicle from the Air Force Western Test Range (AFWTR). Payload-class satellites include a variety of spacecraft equipped with specific instruments for various scientific and technological missions. These include communications satellites like Starlink; space stations such as the ISS; scientific satellites like the Hubble; Earth observation satellites from companies like Planet Labs, Umbra, and HawkEye 360; GPS; miniature CubeSats for education and research; and military/defense satellites.

Loading next visibility...
Identifier
43798, 2018-099AS
Orbit
SSO
Country
Flag of CHCH / SWTZ
Related business
Manufacturer
Astrocast
Mission
Operational Commercial Communications
Bus & Motor
CUBESAT 3U, Unknown motor
Mass
5 kg wet, 5 kg dry
Launch date (UTC)
2018-12-03 (7 years ago)
Launch vehicle
FALCON 9
Launch site
Air Force Western Test Range (AFWTR)
Object type
Payload
Rocket body
Debris
Shape & HBR
Box, 0.1 m
Radar Cross Section
0.035 m², Medium (>0.1 m² and < 1m²)

Expand to show TLE details & history
Last TLE update: 5 hours ago

TLE from 5 hours ago
0 ASTROCAST-01
1 43798U 18099AS  26125.21186498  .00047549  00000-0  94483-3 0  9993
2 43798  97.4388 202.4627 0004654  30.6680 329.4841 15.46819327407780
Epoch: 2026-05-05T05:05Z
TLE epoch observation values (Epoch: 2026-05-05T05:05:05.134Z)
Latitude
0.00001°
Longitude
-96.89865°
Altitude
426.435 km
Speed
7.657 km/s
True Right ascension
13h 29m 51s
True Declination
0° 00' 00"
Sunlit
Object was in full shadow at epoch
Visualization orbit readout
Latitude
Unknown
Longitude
Unknown
Altitude
Unknown
Speed
Unknown
Apparent Right ascension
Unknown
Apparent Declination
Unknown
Sunlit
N/A
Visualization observer readout
Local Sidereal Time
18:07:14
Azimuth
Unknown
Elevation
Unknown
Doppler factor
Unknown
Orbital elements
Apogee altitude
426.134 km
Perigee altitude
419.804 km
Semi-major axis
6,801.106 km
Eccentricity
0.00047
Inclination
97.4388°
RAAN
202.4627°
Arg. of periapsis
30.668°
True anomaly
329.45701°
Mean anomaly
329.4841°
Eccentric anomaly
329.47055°
Mean motion
3.86967 °/min
Orbital period
93.03 mins
BSTAR
0.00094483
Loading maneuver chart data...
Computing Atmospheric mass density...
Loading historical data...
Loading historical data...
Loading historical data...
Loading historical data...
Loading historical data...
Loading historical data...
Loading historical data...

Documentation

Showing up to 5 results
|